Location: Peterborough
(44.3091°N, 78.3197°W)
Time: 17:08:57
(UTC-04:00)

Transit 4A - Pass Details

Date: 23 March 2023
Orbit: 864 x 980 km, 66.8° (Epoch: 04 June)

Event Time Altitude Azimuth Distance (km) Brightness Sun altitude
Rises 06:43:45 0° 169° (S) 3,428 10.9 -5.8°
Reaches altitude 10° 06:46:43 10° 155° (SSE) 2,498 10.4 -5.2°
Maximum altitude 06:51:01 22° 106° (ESE) 1,811 10.5 -4.5°
Drops below altitude 10° 06:55:21 10° 58° (ENE) 2,537 11.4 -3.7°
Sets 06:58:23 0° 44° (NE) 3,497 11.7 -3.1°
